FLOCK 3P-65 (42028 NORAD) Tracking and Keplerian Element Data

This shows tracking and keplerian element data for the satellite.

Feedback or suggestion? Click here.




ElementValue
Catalog42028
NameFLOCK 3P-65
Epoch Orbit5529
Epoch Day45.61104657
Epoch Year2018
RAAN111.2075
Inclination97.4663
Eccentricity0.0009839
Argument of Perigee83.1407
Mean Anonmoly277.0949
Mean Motion15.2391304
Decay Rate1.289E-05
L11 42028U 17008CJ 18045.61104657 .00001289 00000-0 56289-4 0 9994
L22 42028 97.4663 111.2075 0009839 83.1407 277.0949 15.23913040 55299

Live tracking and technical data element details for FLOCK 3P-65 (NORAD 42028). FLOCK 3P-65 can be tracked NOW for your location showing map with azimuth and elevation plus other details from your city location.

Track the satellite on the map from your city or location and see movement details for azimuth, elevation, latitude, longitude, range, height, and movement on the map or in text.







IsCatalogInMostPopularTable: catalog: 42028, numindb: 142
Update: records affected: 1



GetName: 42028 FLOCK 3P-65

Hit Count: updated at: Mon, 12 Nov 2018 18:36:33 GMT